Location: Newark
(25.6108°S, 54.5803°W)
Time: 09:46:21
(UTC+00:00)

deb Explorer IX - Pass Details

Date: 31 October 2020
Orbit: 538 x 1104 km, 38.8° (Epoch: 23 November)

Event Time Altitude Azimuth Distance (km) Brightness Sun altitude
Rises 23:41:57 0° 232° (SW) 3,021 ? -23.1°
Reaches altitude 10° 23:44:49 10° 219° (SW) 2,015 ? -23.7°
Maximum altitude 23:48:36 25° 163° (SSE) 1,214 ? -24.4°
Enters shadow 23:49:04 24° 152° (SSE) 1,220 ? -24.5°
Drops below altitude 10° 23:52:05 10° 107° (ESE) 1,842 - -25.1°
Sets 23:54:34 0° 92° (E) 2,703 - -25.5°
